User: anonymous   Login
Location: Unspecified
(45.6227°N, 0.0000°E)
Time: 09:27:10
(UTC+00:00)
Language:

N. Korean satellite - Orbit

View from above orbital plane
View from above orbital plane
View from above satellite
View from above satellite

Ground track
Ground track

The orbit is defined by the following mean orbital elements,

1 39026U 12072A   23255.63925420  .01679818  25600-2  12588-2 0  9991
2 39026  97.2621 258.2074 0006472 205.1820 154.9152 16.16004275599129
Epoch (UTC): 12 September 2023 15:20:31
Eccentricity: 0.0006472
inclination: 97.2621°
perigee height: 226 km
apogee height: 235 km
right ascension of ascending node: 258.2074°
argument of perigee: 205.1820°
revolutions per day: 16.16004275
mean anomaly at epoch: 154.9152°

The dashed part of the orbit path shows where the satellite is in the earth's shadow,  

DLR